Flag for U.S.A. Weather past 2 weeks in Lowell, Massachusetts, U.S.A.

Now
45 °F

Clear.


Feels Like: 45 °F
Forecast: 42 / 67 °F
Wind: No wind

Location: Hanscom Field

Current Time: Sep 23, 2014 at 12:44:07 AM

Latest Report: Sep 22, 2014 at 11:56 PM


Visibility: 10 mi

Pressure: 30.12 "Hg

Humidity: 82%

Dew point: 40 °F

Location of LowellLocation

Historic Weather in Lowell — Graph

°F

Lowell temperature yesterday

Maximum temperature yesterday: 70 °F (at 12:56 PM)
Minimum temperature yesterday: 48 °F (at 10:56 PM)
Average temperature yesterday: 63 °F

Past Weeks' High & Low Weather Summary

 TemperatureHumidityPressure
High79 °F (Sep 21, 12:56 PM)100% (Sep 9, 5:56 AM)30.46 "Hg (Sep 9, 5:56 AM)
Low33 °F (Sep 20, 3:56 AM)35% (Sep 17, 3:56 PM)29.56 "Hg (Sep 22, 1:56 AM)
Average58 °F78%30.12 "Hg
* Reported Sep 7 10:56 PM — Sep 22 10:56 PM, Lowell, Weather by CustomWeather, © 2014

Note: Actual official high and low records may vary slightly from our data, if they occured in-between our weather recording intervals... More about our weather records

Advertising

Lowell weather history for previous 24 hours

 ConditionsComfort  
Time TempWeatherWind HumidityBarometerVisibility
10:56 PM
Sep 22
48 °FClear.3 mph71%30.11 "Hg10 mi
9:56 PM51 °FClear.10 mph63%30.08 "Hg10 mi
8:56 PM54 °FClear.13 mph57%30.05 "Hg10 mi
7:56 PM56 °FClear.12 mph58%30.00 "Hg10 mi
6:56 PM59 °FSunny.9 mph54%29.95 "Hg10 mi
5:56 PM62 °FSunny.12 mph46%29.91 "Hg10 mi
4:56 PM65 °FSunny.8 mph44%29.86 "Hg10 mi
3:56 PM67 °FSunny.16 mph41%29.84 "Hg10 mi
2:56 PM69 °FSunny.17 mph41%29.82 "Hg10 mi
1:56 PM69 °FSunny.20 mph45%29.80 "Hg10 mi
12:56 PM70 °FPassing clouds.17 mph46%29.78 "Hg10 mi
11:56 AM69 °FScattered clouds.17 mph49%29.77 "Hg10 mi
10:56 AM68 °FPartly sunny.15 mph55%29.75 "Hg10 mi
9:56 AM67 °FScattered clouds.12 mph59%29.73 "Hg10 mi
8:56 AM65 °FSunny.13 mph66%29.71 "Hg10 mi
7:56 AM63 °FPassing clouds.8 mph75%29.69 "Hg10 mi
6:56 AM61 °FPassing clouds.8 mph81%29.66 "Hg10 mi
5:56 AM62 °FClear.8 mph78%29.63 "Hg10 mi
4:56 AM63 °FClear.8 mph84%29.59 "Hg10 mi
3:56 AM65 °FPassing clouds.8 mph94%29.57 "Hg10 mi
2:56 AM66 °FClear.9 mph100%29.56 "Hg10 mi
1:56 AM66 °FPassing clouds.6 mph96%29.56 "Hg10 mi
12:56 AM67 °FFog.6 mph100%29.57 "Hg1 mi
Weather by CustomWeather, © 2014

See weather overviewHow to use our weather pages